Tracking 18980 objects as of 22-Feb-2018
HD Live streaming from Space Station
objects crossing your sky now

FREGAT R/B

Track FREGAT R/B now!


NORAD ID: 40546
Int'l Code: 2015-017C
Perigee: 23,510.5 km
Apogee: 23,602.9 km
Inclination: 55.8 °
Period: 858.8 minutes
Semi major axis: 29927 km
RCS: Unknown
Launch date: March 27, 2015
Source: Commonwealth of Independent States (former USSR) (CIS)
Launch site: FRENCH GUIANA (FRGUI)

Note: This is a ROCKET BODY
aabbcc
Your satellite tracking list
Your tracking list is empty




NASA's NSSDC Master Catalog

Two Line Element Set (TLE):
1 40546U 15017C   18051.56077451 -.00000009  00000-0  00000+0 0  9992
2 40546  55.8234  66.0518 0015431 182.8525 177.1843  1.67684500 17780
Source of the keplerian elements: AFSPC